User: anonymous   Login
Location: Vancouver
(49.2827°N, 123.1207°W)
Time: 09:46:41
(UTC-08:00)
Language:

ISS - Orbit

View from above orbital plane
View from above orbital plane
View from above satellite
View from above satellite

Ground track
Ground track

The orbit data is extracted from the following two-line orbital elements,

1 25544U 98067A   20023.61959959  .00016717  00000-0  10270-3 0  9029
2 25544  51.6434 348.7186 0004945 176.5909 183.5275 15.49255423  9449
Epoch (UTC): 23 January 2020 14:52:13
Eccentricity: 0.0004945
inclination: 51.6434°
perigee height: 415 km
apogee height: 422 km
right ascension of ascending node: 348.7186°
argument of perigee: 176.5909°
revolutions per day: 15.49255423
mean anomaly at epoch: 183.5275°
orbit number at epoch: 944

The dashed part of the orbit path shows where the satellite is in the earth's shadow,  

DLR